Weather History for KNQX - August, 2013

Change the Weather History Date:

Sunday, August 18, 2013

  Actual Average Record
Temperature  
Mean Temperature 86 °F -  
Max Temperature 91 °F 88 °F 93 °F (1958)
Min Temperature 82 °F 78 °F 73 °F (1990)
Cooling Degree Days 21    
Growing Degree Days 36 (Base 50)    
Moisture  
Dew Point 76 °F    
Average Humidity 74    
Maximum Humidity 85    
Minimum Humidity 65    
Precipitation  
Precipitation 0.00 in - - ()
Sea Level Pressure  
Sea Level Pressure 30.01 in    
Wind  
Wind Speed 14 mph (East)    
Max Wind Speed 20 mph    
Max Gust Speed -    
Visibility 10 miles    
Events      
Averages and records for this station are not official NWS values.
T = Trace of Precipitation, MM = Missing Value Source: NWS Daily Summary

Daily Weather History Graph

Daily Weather History Graph

Search for Another Location

Airport or City:

Trip Planner

Search our weather history database for the weather conditions in past years. The results will help you decide how hot, cold, wet, or windy it might be!

Date:

Astronomy

Aug. 18, 2013 Rise Set
Actual Time 7:02 AM EDT 7:58 PM EDT
Civil Twilight 6:38 AM EDT 8:21 PM EDT
Nautical Twilight 6:11 AM EDT 8:49 PM EDT
Astronomical Twilight 5:42 AM EDT 9:17 PM EDT
Moon 5:57 PM EDT (8/18) 4:19 AM EDT (8/18)
Length of Visible Light 13h 42m
Length of Day
12h 55m
Waxing Gibbous, 92% of the Moon is Illuminated
Aug 18
Waxing Gibbous
Aug 20
Full
Aug 28
Last Quarter
Sep 5
New
Sep 12
First Quarter

Hourly Weather History & Observations

Time (EDT) Temp. Heat Index Dew Point Humidity Pressure Visibility Wind Dir Wind Speed Gust Speed Precip Events Conditions
12:53 AM 84.0 °F 92.6 °F 75.9 °F 76% 30.05 in 10.0 mi East 13.8 mph - N/A   Partly Cloudy
1:53 AM 84.0 °F 91.9 °F 75.0 °F 74% 30.03 in 10.0 mi East 11.5 mph - N/A   Partly Cloudy
2:53 AM 82.9 °F 90.2 °F 75.0 °F 77% 29.99 in 10.0 mi East 11.5 mph - N/A   Partly Cloudy
3:53 AM 82.9 °F 91.8 °F 77.0 °F 82% 29.98 in 10.0 mi East 9.2 mph - N/A   Partly Cloudy
4:53 AM 82.9 °F 90.8 °F 75.9 °F 79% 29.98 in 10.0 mi East 13.8 mph - N/A   Partly Cloudy
5:53 AM 82.9 °F 90.2 °F 75.0 °F 77% 29.98 in 10.0 mi East 11.5 mph - N/A   Scattered Clouds
6:53 AM 82.9 °F 89.4 °F 73.9 °F 74% 30.00 in 10.0 mi ESE 12.7 mph - N/A   Mostly Cloudy
7:53 AM 84.0 °F 91.9 °F 75.0 °F 74% 30.02 in 10.0 mi East 12.7 mph - N/A   Scattered Clouds
8:53 AM 86.0 °F 96.0 °F 75.9 °F 72% 30.03 in 10.0 mi East 13.8 mph - N/A   Mostly Cloudy
9:53 AM 88.0 °F 98.5 °F 75.9 °F 67% 30.03 in 10.0 mi East 13.8 mph - N/A   Scattered Clouds
10:53 AM 89.1 °F 101.4 °F 77.0 °F 67% 30.04 in 10.0 mi East 16.1 mph - N/A   Mostly Cloudy
11:53 AM 86.0 °F 93.8 °F 73.9 °F 67% 30.04 in 10.0 mi East 17.3 mph - N/A   Mostly Cloudy
12:53 PM 87.1 °F 98.8 °F 77.0 °F 72% 30.03 in 10.0 mi ESE 18.4 mph - N/A   Mostly Cloudy
1:53 PM 90.0 °F 102.5 °F 77.0 °F 65% 30.00 in 10.0 mi East 17.3 mph - N/A   Scattered Clouds
2:53 PM 90.0 °F 102.5 °F 77.0 °F 65% 30.00 in 10.0 mi East 19.6 mph - N/A   Scattered Clouds
3:53 PM 90.0 °F 104.5 °F 78.1 °F 68% 29.99 in 10.0 mi East 18.4 mph - N/A   Scattered Clouds
4:53 PM 87.1 °F 98.8 °F 77.0 °F 72% 29.97 in 10.0 mi East 17.3 mph - N/A   Scattered Clouds
5:53 PM 87.1 °F 98.8 °F 77.0 °F 72% 29.96 in 10.0 mi East 17.3 mph - N/A   Scattered Clouds
6:53 PM 84.9 °F 95.3 °F 77.0 °F 77% 29.97 in 10.0 mi East 15.0 mph - N/A   Mostly Cloudy
7:53 PM 84.0 °F 91.9 °F 75.0 °F 74% 29.98 in 10.0 mi East 15.0 mph - N/A   Mostly Cloudy
8:53 PM 82.9 °F 90.8 °F 75.9 °F 79% 30.00 in 10.0 mi East 12.7 mph - N/A   Mostly Cloudy
9:53 PM 82.9 °F 92.8 °F 78.1 °F 85% 30.02 in 10.0 mi East 12.7 mph - N/A   Mostly Cloudy
10:53 PM 84.0 °F 93.7 °F 77.0 °F 79% 30.04 in 10.0 mi ESE 9.2 mph - N/A   Clear
11:53 PM 84.0 °F 93.7 °F 77.0 °F 79% 30.04 in 10.0 mi ESE 12.7 mph - N/A   Partly Cloudy